Regional Weather Roundup
Issued by NWS Kansas City/Pleasant Hill, MO

Home | Current Version | Previous Version | Text Only | Print | Product List | Glossary On
Versions: 1 2 3 4 5 6 7 8 9 10 11 12 13 14 15 16 17 18 19 20 21 22 23 24 25 26 27
000
ASUS43 KEAX 030910
RWREAX

WEATHER ROUNDUP FOR EASTERN KANSAS AND NORTHWEST MISSOURI
NATIONAL WEATHER SERVICE KANSAS CITY/PLEASANT HILL MO
300 AM CST SAT DEC 03 2016

KSZ040-057-103>105-MOZ028-029-037-043-031000-
...KANSAS CITY METROPOLITAN AREA...

CITY           SKY/WX    TMP DP  RH WIND       PRES   REMARKS
K.C. INTL      PTCLDY    29  25  85 NE6       30.34  WCI  23
K.C. DOWNTOWN  NOT AVBL
LEES SUMMIT    PTCLDY    33  27  78 NE6       30.34  WCI  28
OLATHE - IXD   CLOUDY    33  28  81 NE6       30.33  WCI  28
OLATHE - OJC   CLOUDY    34  27  75 NE6       30.33  WCI  29
LAWRENCE       CLOUDY    32  28  85 NE3       30.34

$$

MOZ001>008-011>017-020>025-030>033-038>040-044>046-053-054-031000-
...NORTHERN AND CENTRAL MISSOURI...

CITY           SKY/WX    TMP DP  RH WIND       PRES   REMARKS
ST. JOSEPH     PTCLDY    24  23  96 CALM      30.36
WARRENSBURG    CLOUDY    30  27  86 N3        30.35R
WHITEMAN AFB   MOCLDY    29  28  95 CALM      30.33S
CLINTON        NOT AVBL
SEDALIA        PTCLDY    34  26  72 CALM      30.36
WARSAW         NOT AVBL
CHILLICOTHE      N/A     29  26  89 CALM      30.38S
KIRKSVILLE     PTCLDY    26  24  92 N3        30.36F

$$

MOZ041-047>049-056>058-063>065-088>090-097-031000-
...EASTERN AND SOUTHERN MISSOURI...

CITY           SKY/WX    TMP DP  RH WIND       PRES   REMARKS
ST. LOUIS INTL NOT AVBL
JEFFERSON CITY CLOUDY    27  24  89 CALM      30.37
ROLLA          CLOUDY    34  28  79 CALM      30.32
OSAGE BEACH    CLOUDY    32  26  78 E5        30.34S WCI  27
SPRINGFIELD    PTCLDY    45  26  47 E7        30.28
JOPLIN         CLOUDY    46  27  47 E9        30.27
WEST PLAINS    CLOUDY    40  29  64 NE3       30.33

$$

IAZ060-094-KSZ022-034>040-054-083-096-NEZ052-066-093-031000-
...KANSAS...SOUTHEAST NEBRASKA AND IOWA...

CITY           SKY/WX    TMP DP  RH WIND       PRES   REMARKS
TOPEKA         CLOUDY    30  24  78 CALM      30.34
MANHATTAN      CLOUDY    31  26  82 NE5       30.32  WCI  26
EMPORIA        CLOUDY    35  28  75 NE8       30.29  WCI  29
CHANUTE        CLOUDY    43  27  53 NE10      30.27
WICHITA        CLOUDY    43  27  53 NE8       30.26
FALLS CITY       N/A    N/A N/A N/A MISG      30.36
LAMONI         CLOUDY    25  23  92 W3        30.35

$$





USA.gov is the U.S. government's official web portal to all federal, state and local government web resources and services.